Date String (YYYY-MM-DD hh:mm:ss) UTC,Instrument flags,Ambient pressure (hPa),Sample flow (lpm),Bypass flow (lpm),Sample temperature (°C),Ambient temperature (°C),ASC tube jacket temperature (°C),LED temperature (°C),Box temperature (°C),Sample RH (%),Span deviation,Mass concentration (μg/m³),Mass concentration (μg/m³),Mass concentration (μg/m³)
DateTimeUTC,F1_M11,P_M11,Q1_M11,Q2_M11,T1_M11,T2_M11,T3_M11,T4_M11,T5_M11,U1_M11,ZSPAN_M11,X0_M11,X2_M11,X1_M11
2022-05-05 22:00:00,,0822.4,4.99,0.00,29.3,28.7,00.0,38.1,31.2,13.8,0000.0,0008.55,0004.42,0003.41
2022-05-05 22:01:00,,0822.3,5.01,0.00,29.3,28.7,00.0,38.1,31.2,13.0,0000.0,0008.57,0004.41,0003.39
2022-05-05 22:02:00,,0822.3,5.01,0.00,29.4,28.7,00.0,38.1,31.2,13.1,0000.0,0008.51,0004.40,0003.39
2022-05-05 22:03:00,,0822.3,5.00,0.00,29.4,28.8,00.0,38.1,31.2,12.7,0000.0,0008.49,0004.41,0003.40
2022-05-05 22:04:00,,0822.4,4.98,0.00,29.4,28.8,00.0,38.1,31.2,12.8,0000.0,0008.48,0004.39,0003.39
2022-05-05 22:05:00,,0822.4,5.00,0.00,29.4,28.8,00.0,38.2,31.2,12.8,0000.0,0008.39,0004.35,0003.38
2022-05-05 22:06:00,,0822.4,5.00,0.00,29.4,28.8,00.0,38.2,31.3,12.5,0000.0,0008.44,0004.35,0003.37
2022-05-05 22:07:00,,0822.4,5.00,0.00,29.4,28.8,00.0,38.2,31.3,12.7,0000.0,0008.54,0004.37,0003.37
2022-05-05 22:08:00,,0822.3,5.01,0.00,29.4,28.8,00.0,38.2,31.3,13.1,0000.0,0008.45,0004.34,0003.38
2022-05-05 22:09:00,,0822.3,5.00,0.00,29.5,28.8,00.0,38.2,31.3,13.1,0000.0,0008.46,0004.36,0003.38
2022-05-05 22:10:00,,0822.3,4.99,0.00,29.5,28.8,00.0,38.2,31.3,12.7,0000.0,0008.30,0004.33,0003.38
2022-05-05 22:11:00,,0822.3,5.00,0.00,29.5,28.8,00.0,38.3,31.3,12.6,0000.0,0008.42,0004.37,0003.37
2022-05-05 22:12:00,,0822.3,5.00,0.00,29.5,28.8,00.0,38.3,31.3,12.5,0000.0,0008.43,0004.41,0003.39
2022-05-05 22:13:00,,0822.3,4.98,0.00,29.5,28.9,00.0,38.3,31.3,12.5,0000.0,0008.23,0004.34,0003.39
2022-05-05 22:14:00,,0822.3,5.00,0.00,29.5,28.9,00.0,38.3,31.4,12.1,0000.0,0008.48,0004.31,0003.37
2022-05-05 22:15:00,,0822.2,5.00,0.00,29.5,28.9,00.0,38.3,31.4,12.2,0000.0,0008.80,0004.37,0003.37
2022-05-05 22:16:00,,0822.2,4.99,0.00,29.6,28.9,00.0,38.3,31.4,12.0,0000.0,0008.84,0004.38,0003.37
2022-05-05 22:17:00,,0822.1,5.01,0.00,29.6,29.0,00.0,38.4,31.4,11.8,0000.0,0008.90,0004.41,0003.37
2022-05-05 22:18:00,,0822.2,5.01,0.00,29.6,29.0,00.0,38.4,31.4,11.7,0000.0,0008.99,0004.42,0003.36
2022-05-05 22:19:00,,0822.2,4.99,0.00,29.6,29.0,00.0,38.4,31.4,11.4,0000.0,0009.07,0004.41,0003.34
2022-05-05 22:20:00,,0822.2,5.01,0.00,29.6,29.0,00.0,38.4,31.5,11.1,0000.0,0009.06,0004.39,0003.34
2022-05-05 22:21:00,,0822.2,5.00,0.00,29.6,29.0,00.0,38.4,31.5,12.4,0000.0,0009.11,0004.41,0003.34
2022-05-05 22:22:00,,0822.1,4.99,0.00,29.7,29.0,00.0,38.4,31.5,12.0,0000.0,0009.00,0004.36,0003.33
2022-05-05 22:23:00,,0822.2,5.01,0.00,29.7,29.1,00.0,38.5,31.5,11.7,0000.0,0009.06,0004.34,0003.31
2022-05-05 22:24:00,,0822.1,5.01,0.00,29.7,29.1,00.0,38.5,31.5,12.0,0000.0,0009.20,0004.36,0003.30
2022-05-05 22:25:00,,0822.1,4.99,0.00,29.7,29.1,00.0,38.5,31.5,12.4,0000.0,0009.10,0004.41,0003.30
2022-05-05 22:26:00,,0822.2,5.00,0.00,29.7,29.1,00.0,38.5,31.6,11.9,0000.0,0009.48,0004.45,0003.29
2022-05-05 22:27:00,,0822.2,5.01,0.00,29.8,29.1,00.0,38.5,31.6,11.1,0000.0,0010.10,0004.50,0003.29
2022-05-05 22:28:00,,0822.2,5.01,0.00,29.8,29.1,00.0,38.5,31.6,11.2,0000.0,0010.06,0004.45,0003.28
2022-05-05 22:29:00,,0822.1,4.99,0.00,29.8,29.2,00.0,38.6,31.6,11.1,0000.0,0009.96,0004.44,0003.27
2022-05-05 22:30:00,,0822.2,5.01,0.00,29.8,29.2,00.0,38.6,31.7,11.3,0000.0,0010.17,0004.47,0003.27
2022-05-05 22:31:00,,0822.1,4.99,0.00,29.8,29.2,00.0,38.6,31.6,11.1,0000.0,0010.54,0004.47,0003.27
2022-05-05 22:32:00,,0822.1,5.00,0.00,29.8,29.2,00.0,38.6,31.6,11.5,0000.0,0010.69,0004.49,0003.27
2022-05-05 22:33:00,,0822.1,5.02,0.00,29.8,29.2,00.0,38.6,31.6,11.9,0000.0,0010.77,0004.51,0003.27
2022-05-05 22:34:00,,0822.1,4.98,0.00,29.9,29.2,00.0,38.6,31.7,12.2,0000.0,0010.84,0004.55,0003.28
2022-05-05 22:35:00,,0822.1,5.01,0.00,29.9,29.2,00.0,38.7,31.7,11.6,0000.0,0010.80,0004.57,0003.29
2022-05-05 22:36:00,,0822.1,5.01,0.00,29.9,29.2,00.0,38.7,31.7,11.1,0000.0,0010.70,0004.54,0003.30
2022-05-05 22:37:00,,0822.1,4.99,0.00,29.9,29.3,00.0,38.7,31.7,11.0,0000.0,0010.28,0004.51,0003.30
2022-05-05 22:38:00,,0822.1,4.99,0.00,29.9,29.2,00.0,38.7,31.8,11.2,0000.0,0009.66,0004.49,0003.31
2022-05-05 22:39:00,,0822.1,5.02,0.00,29.9,29.2,00.0,38.7,31.8,11.4,0000.0,0009.71,0004.53,0003.31
2022-05-05 22:40:00,,0822.1,4.99,0.00,29.9,29.3,00.0,38.7,31.8,11.1,0000.0,0010.13,0004.54,0003.32
2022-05-05 22:41:00,,0822.1,4.99,0.00,29.9,29.3,00.0,38.7,31.8,11.1,0000.0,0010.14,0004.55,0003.32
2022-05-05 22:42:00,,0822.2,5.00,0.00,30.0,29.3,00.0,38.8,31.8,11.4,0000.0,0009.86,0004.57,0003.32
2022-05-05 22:43:00,,0822.2,5.00,0.00,30.0,29.3,00.0,38.8,31.8,10.9,0000.0,0009.94,0004.58,0003.31
2022-05-05 22:44:00,,0822.2,5.02,0.00,30.0,29.3,00.0,38.8,31.8,10.6,0000.0,0009.87,0004.58,0003.31
2022-05-05 22:45:00,,0822.2,4.99,0.00,30.0,29.4,00.0,38.8,31.8,10.4,0000.0,0009.74,0004.54,0003.30
2022-05-05 22:46:00,,0822.1,5.00,0.00,30.0,29.4,00.0,38.8,31.9,10.9,0000.0,0010.05,0004.53,0003.29
2022-05-05 22:47:00,,0822.1,5.02,0.00,30.0,29.4,00.0,38.8,31.9,11.7,0000.0,0010.30,0004.52,0003.27
2022-05-05 22:48:00,,0822.1,5.00,0.00,30.1,29.4,00.0,38.9,31.9,11.4,0000.0,0011.05,0004.50,0003.28
2022-05-05 22:49:00,,0822.1,4.99,0.00,30.1,29.4,00.0,38.9,31.9,11.5,0000.0,0011.60,0004.53,0003.27
2022-05-05 22:50:00,,0822.1,5.01,0.00,30.1,29.4,00.0,38.9,31.9,11.5,0000.0,0011.54,0004.53,0003.28
2022-05-05 22:51:00,,0822.1,4.99,0.00,30.1,29.4,00.0,38.9,31.9,11.1,0000.0,0011.16,0004.50,0003.28
2022-05-05 22:52:00,,0822.2,5.01,0.00,30.1,29.4,00.0,38.9,31.9,10.6,0000.0,0011.28,0004.49,0003.28
2022-05-05 22:53:00,,0822.1,5.01,0.00,30.1,29.5,00.0,38.9,32.0,10.4,0000.0,0011.40,0004.47,0003.29
2022-05-05 22:54:00,,0822.1,4.99,0.00,30.1,29.5,00.0,38.9,31.9,10.7,0000.0,0011.32,0004.47,0003.29
2022-05-05 22:55:00,,0822.1,5.01,0.00,30.1,29.5,00.0,39.0,32.0,11.0,0000.0,0011.38,0004.46,0003.29
2022-05-05 22:56:00,,0822.1,5.00,0.00,30.2,29.5,00.0,39.0,32.0,10.4,0000.0,0011.40,0004.47,0003.30
2022-05-05 22:57:00,,0822.1,5.00,0.00,30.2,29.5,00.0,39.0,32.0,11.0,0000.0,0011.24,0004.51,0003.30
2022-05-05 22:58:00,,0822.1,5.00,0.00,30.2,29.6,00.0,39.0,32.0,11.2,0000.0,0011.08,0004.54,0003.30
2022-05-05 22:59:00,,0822.1,5.01,0.00,30.2,29.6,00.0,39.0,32.0,10.8,0000.0,0010.68,0004.56,0003.30
